sat.trackr.live / text

‹ back to catalog

ONEWEB-0401

NORAD 50481 · 2021-132N

PAYLOAD ACTIVE UNKNOWN

§ Identity

Operator
Country
UK
Launch date
2021-12-27
Launch site
TYMSC
Launch vehicle
Mass (kg)
RCS (m²)

Purposes: comms

External: N2YO · Heavens-Above · Gunter

§ Orbital elements

Epoch: 2026-05-25T01:31:43.095936Z

Period
109.20 min
Inclination
87.9171°
Eccentricity
0.0001863
Mean motion
13.18687666 rev/d
Perigee alt
1,188.3 km
Apogee alt
1,191.1 km
Semi-major
7,567.9 km
B*
-1.1353e-4
RAAN
340.0429°
Arg perigee
81.0037°
Mean anomaly
279.1306°
Rev number
21,856

§ Raw data

ONEWEB-04011 50481U 21132N   26145.06369324 -.00000032  00000+0 -11353-3 0  99902 50481  87.9171 340.0429 0001863  81.0037 279.1306 13.18687666218564

JSON: /api/v1/satellites/50481 · /tle

For live sub-satellite position, see the globe view (requires WebGL).

§ Visibility from observer

Set your observer location to see the next 7 days of passes ≥ 10°. The values pass through the URL so the page stays shareable.

No JS? Fill the form by hand. The geolocation button needs JavaScript.